User: anonymous   Login
Location: Caribou
(46.8667°N, 68.0167°W)
Time: 15:52:41
(UTC-04:00)
Language:

SL-08 RB Rocket - Orbit

View from above orbital plane
View from above orbital plane
View from above satellite
View from above satellite

Ground track
Ground track

The orbit data is extracted from the following two-line orbital elements,

1 26387U 00033D   16152.16845510  .00000161  00000-0  36324-4 0  9997
2 26387  98.0185 219.1117 0027901 109.8310 303.4184 14.68152633851828
Epoch (UTC): 31 May 2016 04:02:34
Eccentricity: 0.0027901
inclination: 98.0185°
perigee height: 647 km
apogee height: 686 km
right ascension of ascending node: 219.1117°
argument of perigee: 109.8310°
revolutions per day: 14.68152633
mean anomaly at epoch: 303.4184°
orbit number at epoch: 85182

The dashed part of the orbit path shows where the satellite is in the earth's shadow,  

DLR